Location: Ay?beleni
(36.6500°N, 30.3000°E)
Time: 03:47:35
(UTC+00:00)

CZ-2C R/B - Pass Details

Date: 16 October 2021
Orbit: 387 x 574 km, 35.0° (Epoch: 08 December)

Event Time Altitude Azimuth Distance (km) Brightness Sun altitude
Rises 16:02:40 0° 233° (SW) 2,405 5.7 -9.1°
Maximum altitude 16:08:00 28° 161° (SSE) 809 2.0 -10.2°
Enters shadow 16:10:07 15° 108° (ESE) 1,201 2.5 -10.6°
